Regional Weather Roundup
Issued by NWS

Home | Current Version | Previous Version | Text Only | Print | Product List | Glossary On
Versions: 1 2 3 4 5 6 7 8 9 10 11 12 13 14 15 16 17 18 19 20 21 22 23 24 25 26 27 28 29 30 31 32 33 34 35 36 37 38 39 40 41 42 43 44 45 46 47 48 49 50
000
ASUS43 KLSX 312307
RWRMO

WEATHER SUMMARY FOR MISSOURI
NATIONAL WEATHER SERVICE SPRINGFIELD MO
600 PM CDT TUE MAR 31 2020

NOTE: "FAIR" INDICATES FEW OR NO CLOUDS BELOW 12,000 FEET WITH NO
       SIGNIFICANT WEATHER AND/OR OBSTRUCTIONS TO VISIBILITY.
       CURRENT SKY AND/OR WEATHER CONDITIONS ARE NOT AVAILABLE FOR
       CHILLICOTHE AND FARMINGTON.

MOZ001>031-035>038-043-044-053-054-010000-
...NORTHERN AND WESTERN MISSOURI...

CITY           SKY/WX    TMP DP  RH WIND       PRES   REMARKS
KANSAS CTY INT PTSUNNY   67  37  33 NW6       29.95F
KANSAS C DTWN  PTSUNNY   66  35  31 W6        29.94F
LEE`S SUMMIT   FAIR      67  35  30 NW3       29.96F
ST JOSEPH      FAIR      66  37  34 CALM      29.94F
CHILLICOTHE      N/A     65  30  27 N6        29.96F
KIRKSVILLE     FAIR      60  34  37 N12       29.97S

$$
MOZ066>068-077>081-088>096-101>105-010000-
...SOUTHWEST MISSOURI...

CITY           SKY/WX    TMP DP  RH WIND       PRES   REMARKS
SPRINGFIELD    FAIR      63  34  33 NW10G20   29.96S
JOPLIN         FAIR      65  45  48 W7G17     29.99F
BRANSON        MOSUNNY   63  36  36 NW9G16    29.98S

$$
MOZ032>034-039>042-045>050-055>058-069>072-010000-
...CENTRAL MISSOURI...

CITY           SKY/WX    TMP DP  RH WIND       PRES   REMARKS
COLUMBIA       FAIR      64  29  26 NW16      29.95R
JEFFERSON CITY FAIR      66  30  26 NW10G20   29.95R
ROLLA          FAIR      63  32  31 NW12      29.95R
SEDALIA        FAIR      66  29  24 NW14      29.98R
WHITEMAN AFB   SUNNY     66  32  28 N8        29.92F
OSAGE BEACH    FAIR      65  29  25 NW7       29.97R

$$
MOZ051-052-059>065-010000-
...EAST CENTRAL MISSOURI...

CITY           SKY/WX    TMP DP  RH WIND       PRES   REMARKS
ST LOUIS INTL  FAIR      60  36  40 NE9       29.94S
SPIRIT OF STL  FAIR      62  37  39 N12       29.93R
ST CHARLES     PTSUNNY   60  38  43 NE13      29.93S

$$
MOZ072>076-082>087-097>100-106>115-010000-
...SOUTH CENTRAL AND SOUTHEAST MISSOURI...

CITY           SKY/WX    TMP DP  RH WIND       PRES   REMARKS
CAPE GIRARDEAU FAIR      61  38  42 N14G21    29.91F
FARMINGTON     FAIR      62  35  36 N10       29.92S
POPLAR BLUFF   FAIR      65  38  36 N12       29.90S
WEST PLAINS    FAIR      65  30  27 NW12G22   29.95R

$$




USA.gov is the U.S. government's official web portal to all federal, state and local government web resources and services.